Date String (YYYY-MM-DD hh:mm:ss) UTC,Instrument flags,Ambient pressure (hPa),Sample flow (lpm),Bypass flow (lpm),Sample temperature (°C),Ambient temperature (°C),ASC tube jacket temperature (°C),LED temperature (°C),Box temperature (°C),Sample RH (%),Span deviation,Mass concentration (μg/m³),Mass concentration (μg/m³),Mass concentration (μg/m³)
DateTimeUTC,F1_M11,P_M11,Q1_M11,Q2_M11,T1_M11,T2_M11,T3_M11,T4_M11,T5_M11,U1_M11,ZSPAN_M11,X2_M11,X0_M11,X1_M11
2021-09-14 08:00:00,,0829.1,4.99,0.00,29.5,28.7,00.0,38.6,31.2,23.4,0000.0,0004.78,0012.23,0003.89
2021-09-14 08:01:00,,0829.0,5.01,0.00,29.5,28.7,00.0,38.6,31.2,23.3,0000.0,0004.80,0012.59,0003.90
2021-09-14 08:02:00,,0829.1,5.00,0.00,29.4,28.7,00.0,38.7,31.2,23.4,0000.0,0004.82,0012.74,0003.88
2021-09-14 08:03:00,,0829.0,5.00,0.00,29.4,28.7,00.0,38.7,31.2,23.4,0000.0,0004.84,0012.70,0003.88
2021-09-14 08:04:00,,0829.1,5.01,0.00,29.5,28.7,00.0,38.7,31.2,23.4,0000.0,0004.88,0013.46,0003.88
2021-09-14 08:05:00,,0829.1,5.00,0.00,29.5,28.7,00.0,38.6,31.2,23.4,0000.0,0004.95,0013.86,0003.89
2021-09-14 08:06:00,,0829.1,4.99,0.00,29.5,28.7,00.0,38.7,31.2,23.4,0000.0,0004.95,0013.78,0003.88
2021-09-14 08:07:00,,0829.1,5.01,0.00,29.5,28.7,00.0,38.7,31.2,23.4,0000.0,0004.98,0014.11,0003.89
2021-09-14 08:08:00,,0829.1,5.00,0.00,29.5,28.7,00.0,38.7,31.2,23.4,0000.0,0004.98,0013.76,0003.89
2021-09-14 08:09:00,,0829.1,5.00,0.00,29.5,28.7,00.0,38.7,31.2,23.5,0000.0,0004.95,0012.41,0003.90
2021-09-14 08:10:00,,0829.0,5.01,0.00,29.5,28.7,00.0,38.7,31.2,23.5,0000.0,0004.92,0012.47,0003.89
2021-09-14 08:11:00,,0829.1,4.98,0.00,29.5,28.7,00.0,38.7,31.2,23.4,0000.0,0004.88,0012.37,0003.89
2021-09-14 08:12:00,,0829.1,5.01,0.00,29.5,28.7,00.0,38.7,31.2,23.4,0000.0,0004.85,0011.99,0003.89
2021-09-14 08:13:00,,0829.1,4.99,0.00,29.5,28.7,00.0,38.7,31.2,23.4,0000.0,0004.90,0011.81,0003.90
2021-09-14 08:14:00,,0829.1,5.01,0.00,29.5,28.7,00.0,38.7,31.2,23.5,0000.6,0004.92,0011.75,0003.90
2021-09-14 08:15:00,,0829.1,4.99,0.00,29.5,28.7,00.0,38.7,31.2,23.4,0001.7,0004.95,0011.34,0003.90
2021-09-14 08:16:00,,0829.1,5.01,0.00,29.5,28.7,00.0,38.7,31.2,23.4,0002.1,0004.92,0011.18,0003.91
2021-09-14 08:17:00,,0829.1,5.01,0.00,29.5,28.7,00.0,38.7,31.2,23.4,0001.8,0004.94,0010.60,0003.92
2021-09-14 08:18:00,,0829.1,4.99,0.00,29.5,28.8,00.0,38.7,31.2,23.5,0001.4,0004.98,0010.97,0003.92
2021-09-14 08:19:00,,0829.1,5.01,0.00,29.5,28.8,00.0,38.7,31.2,23.4,0001.0,0004.98,0010.73,0003.92
2021-09-14 08:20:00,,0829.1,5.00,0.00,29.5,28.8,00.0,38.7,31.3,23.5,0000.0,0004.96,0010.71,0003.89
2021-09-14 08:21:00,,0829.1,4.99,0.00,29.5,28.8,00.0,38.7,31.3,23.4,0000.0,0004.91,0010.47,0003.88
2021-09-14 08:22:00,,0829.1,5.00,0.00,29.5,28.8,00.0,38.7,31.3,23.5,0000.0,0004.92,0010.41,0003.87
2021-09-14 08:23:00,,0829.1,5.01,0.00,29.5,28.8,00.0,38.7,31.3,23.4,0000.0,0004.94,0010.79,0003.85
2021-09-14 08:24:00,,0829.0,5.01,0.00,29.5,28.8,00.0,38.7,31.3,23.4,0000.0,0004.89,0010.63,0003.83
2021-09-14 08:25:00,,0829.1,4.99,0.00,29.6,28.8,00.0,38.7,31.3,23.4,0000.0,0004.84,0010.62,0003.80
2021-09-14 08:26:00,,0829.1,4.98,0.00,29.5,28.8,00.0,38.7,31.2,23.5,0000.0,0004.80,0011.08,0003.79
2021-09-14 08:27:00,,0829.2,4.99,0.00,29.6,28.8,00.0,38.7,31.3,23.5,0000.0,0004.77,0010.89,0003.77
2021-09-14 08:28:00,,0829.2,5.00,0.00,29.6,28.8,00.0,38.7,31.3,23.4,0000.0,0004.75,0010.93,0003.75
2021-09-14 08:29:00,,0829.2,5.00,0.00,29.6,28.8,00.0,38.7,31.3,23.5,0000.0,0004.74,0010.76,0003.74
2021-09-14 08:30:00,,0829.2,5.00,0.00,29.6,28.8,00.0,38.7,31.3,23.4,0000.0,0004.73,0010.64,0003.72
2021-09-14 08:31:00,,0829.2,4.99,0.00,29.6,28.8,00.0,38.7,31.2,23.5,0000.0,0004.73,0010.92,0003.73
2021-09-14 08:32:00,,0829.2,5.01,0.00,29.5,28.8,00.0,38.7,31.2,23.5,0000.0,0004.76,0011.99,0003.73
2021-09-14 08:33:00,,0829.2,5.01,0.00,29.6,28.8,00.0,38.7,31.2,23.4,0000.0,0004.74,0012.38,0003.72
2021-09-14 08:34:00,,0829.1,5.00,0.00,29.6,28.8,00.0,38.8,31.2,23.4,0000.0,0004.78,0012.42,0003.71
2021-09-14 08:35:00,,0829.1,5.00,0.00,29.5,28.8,00.0,38.8,31.3,23.4,0000.0,0004.79,0012.70,0003.72
2021-09-14 08:36:00,,0829.1,5.00,0.00,29.5,28.8,00.0,38.7,31.2,23.4,0000.0,0004.81,0012.74,0003.73
2021-09-14 08:37:00,,0829.1,5.00,0.00,29.5,28.8,00.0,38.7,31.2,23.4,0000.0,0004.80,0012.63,0003.72
2021-09-14 08:38:00,,0829.1,5.00,0.00,29.5,28.8,00.0,38.7,31.2,23.4,0000.0,0004.79,0012.50,0003.71
2021-09-14 08:39:00,,0829.1,4.99,0.00,29.5,28.8,00.0,38.7,31.2,23.4,0000.0,0004.77,0012.34,0003.71
2021-09-14 08:40:00,,0829.1,5.01,0.00,29.5,28.8,00.0,38.7,31.2,23.4,0000.0,0004.76,0012.21,0003.70
2021-09-14 08:41:00,,0829.1,5.01,0.00,29.5,28.8,00.0,38.7,31.2,23.4,0000.0,0004.72,0011.99,0003.69
2021-09-14 08:42:00,,0829.1,5.00,0.00,29.5,28.8,00.0,38.7,31.2,23.5,0000.0,0004.73,0011.82,0003.68
2021-09-14 08:43:00,,0829.1,4.98,0.00,29.5,28.8,00.0,38.7,31.2,23.5,0000.0,0004.71,0010.96,0003.67
2021-09-14 08:44:00,,0829.1,4.99,0.00,29.5,28.7,00.0,38.7,31.2,23.5,0000.0,0004.69,0010.91,0003.68
2021-09-14 08:45:00,,0829.1,5.00,0.00,29.5,28.7,00.0,38.7,31.2,23.5,0000.0,0004.65,0010.82,0003.68
2021-09-14 08:46:00,,0829.0,5.01,0.00,29.5,28.8,00.0,38.7,31.2,23.5,0000.0,0004.63,0010.62,0003.67
2021-09-14 08:47:00,,0829.0,4.99,0.00,29.5,28.8,00.0,38.7,31.2,23.5,0000.0,0004.55,0010.45,0003.66
2021-09-14 08:48:00,,0828.9,5.01,0.00,29.5,28.8,00.0,38.7,31.2,23.5,0000.0,0004.54,0010.22,0003.66
2021-09-14 08:49:00,,0828.9,5.01,0.00,29.5,28.8,00.0,38.7,31.2,23.5,0000.0,0004.52,0010.65,0003.65
2021-09-14 08:50:00,,0828.9,4.99,0.00,29.5,28.8,00.0,38.7,31.2,23.5,0000.0,0004.51,0011.55,0003.64
2021-09-14 08:51:00,,0828.9,5.01,0.00,29.5,28.8,00.0,38.7,31.2,23.5,0000.0,0004.45,0011.27,0003.64
2021-09-14 08:52:00,,0828.9,4.99,0.00,29.5,28.8,00.0,38.7,31.2,23.5,0000.0,0004.44,0011.29,0003.65
2021-09-14 08:53:00,,0828.9,5.01,0.00,29.5,28.8,00.0,38.7,31.2,23.5,0000.0,0004.41,0011.29,0003.65
2021-09-14 08:54:00,,0828.9,5.01,0.00,29.5,28.8,00.0,38.7,31.2,23.5,0000.0,0004.40,0011.14,0003.65
2021-09-14 08:55:00,,0829.2,5.00,0.00,29.5,28.8,00.0,38.7,31.2,23.4,0000.0,0004.39,0011.13,0003.63
2021-09-14 08:56:00,,0829.0,4.99,0.00,29.5,28.8,00.0,38.7,31.2,23.4,0000.0,0004.37,0011.79,0003.62
2021-09-14 08:57:00,,0828.8,5.00,0.00,29.5,28.8,00.0,38.7,31.2,23.4,0000.0,0004.34,0012.28,0003.61
2021-09-14 08:58:00,,0828.9,5.01,0.00,29.5,28.8,00.0,38.7,31.2,23.4,0000.0,0004.37,0012.46,0003.61
2021-09-14 08:59:00,,0828.8,4.99,0.00,29.5,28.8,00.0,38.7,31.2,23.4,0000.0,0004.36,0012.70,0003.60
